STARLINK-3105 (49440 NORAD) Tracking and Keplerian Element Data

This shows tracking and keplerian element data for the satellite.

Feedback or suggestion? Click here.




ElementValue
Catalog49440
NameSTARLINK-3105
Epoch Orbit485
Epoch Day340.25001157
Epoch Year2021
RAAN20.582
Inclination53.2185
Eccentricity0.0002
Argument of Perigee35.2485
Mean Anonmoly124.6141
Mean Motion15.7327385
Decay Rate-0.00089196
L11 49440U 21104AJ 21340.25001157 -.00089196 00000+0 -63577-3 0 9995
L22 49440 53.2185 20.5820 0002000 35.2485 124.6141 15.73273850 4850

Live tracking and technical data element details for STARLINK-3105 (NORAD 49440). STARLINK-3105 can be tracked NOW for your location showing map with azimuth and elevation plus other details from your city location.

Track the satellite on the map from your city or location and see movement details for azimuth, elevation, latitude, longitude, range, height, and movement on the map or in text.







IsCatalogInMostPopularTable: catalog: 49440, numindb: 1
Update: records affected: 1



GetName: 49440 STARLINK-3105

Hit Count: updated at: Wed, 08 Dec 2021 15:39:17 GMT